This is the latest recevied weather packets stored in our database for station/object W4KAB. If no packets are shown the sender has not sent any weather packets the latest 10 day(s).
| Time | Temp. | Humidity | Pressure | Rain* | Wind** | Luminosity | Snow |
|---|---|---|---|---|---|---|---|
| 1778211589 | 11.11° C | 80% | 1015.7 hPa | 0 mm | - | 0 W/m² | - |
| 1778211287 | 11.67° C | 80% | 1015.6 hPa | 0 mm | - | 0 W/m² | - |
| 1778210984 | 11.67° C | 79% | 1015.5 hPa | 0 mm | - | 0 W/m² | - |
| 1778210676 | 11.67° C | 78% | 1015.5 hPa | 0 mm | - | 0 W/m² | - |
| 1778210373 | 11.67° C | 77% | 1015.6 hPa | 0 mm | - | 0 W/m² | - |
| 1778210071 | 12.22° C | 76% | 1015.5 hPa | 0 mm | - | 0 W/m² | - |
| 1778209766 | 12.22° C | 76% | 1015.6 hPa | 0 mm | - | 0 W/m² | - |
| 1778209463 | 12.22° C | 76% | 1015.5 hPa | 0 mm | - | 0 W/m² | - |
| 1778209160 | 12.22° C | 78% | 1015.3 hPa | 0 mm | - | 0 W/m² | - |
| 1778208857 | 12.78° C | 76% | 1015.3 hPa | 0 mm | - | 0 W/m² | - |
| 1778208554 | 12.78° C | 75% | 1015 hPa | 0 mm | - | 0 W/m² | - |
| 1778208250 | 12.78° C | 74% | 1015.2 hPa | 0 mm | - | 0 W/m² | - |
| 1778207947 | 12.78° C | 74% | 1015 hPa | 0 mm | - | 0 W/m² | - |
| 1778207644 | 12.78° C | 73% | 1015.1 hPa | 0 mm | - | 0 W/m² | - |
| 1778207341 | 12.78° C | 74% | 1015.2 hPa | 0 mm | - | 0 W/m² | - |
| 1778207036 | 12.78° C | 75% | 1015 hPa | 0 mm | - | 0 W/m² | - |
| 1778206734 | 12.78° C | 74% | 1015 hPa | 0 mm | - | 0 W/m² | - |
| 1778206429 | 12.78° C | 72% | 1014.8 hPa | 0 mm | - | 0 W/m² | - |
| 1778206125 | 12.22° C | 75% | 1014.7 hPa | 0 mm | - | 0 W/m² | - |
| 1778205824 | 12.22° C | 75% | 1014.5 hPa | 0 mm | - | 0 W/m² | - |
| 1778205520 | 12.22° C | 80% | 1014.7 hPa | 0 mm | - | 0 W/m² | - |
| 1778205218 | 11.67° C | 78% | 1014.9 hPa | 0 mm | - | 0 W/m² | - |
| 1778204914 | 11.67° C | 80% | 1014.5 hPa | 0 mm | - | 0 W/m² | - |
| 1778204611 | 11.67° C | 80% | 1014.6 hPa | 0 mm | - | 0 W/m² | - |
| 1778204306 | 11.67° C | 82% | 1014.3 hPa | 0 mm | - | 0 W/m² | - |
* Rain latest hour (hover to see other rain measurements)
** Current wind speed in m/s (hover to see current wind gust speed)